Location: Cussy
(47.0410°N, 4.6412°E)
Time: 06:10:21
(UTC+00:00)

SL-23 DEB - Pass Details

Date: 30 November 2020
Orbit: 425 x 3628 km, 51.4° (Epoch: 18 January)

Event Time Altitude Azimuth Distance (km) Brightness Sun altitude
Rises 17:18:31 0° 225° (SW) 2,459 8.3 -13.8°
Reaches altitude 10° 17:20:19 10° 220° (SW) 1,696 7.2 -14.1°
Maximum altitude 17:23:50 53° 142° (SE) 777 4.4 -14.7°
Enters shadow 17:26:47 23° 75° (ENE) 1,609 5.5 -15.2°
